TJS-1

Last updated on Tue Sep 16 2025 00:02:48 GMT+0000 (Coordinated Universal Time)

1 40892U 15046A 25258.49842531 -.00000173 00000+0 00000+0 0 9997 2 40892 0.0171 251.3595 0002939 327.3760 110.4415 1.00269313 36814
UTC large
Height (km)
Speed (km/s)
/
Latitude / Longitude
Inclination (degrees)
Orbital Period (minutes)
Azimuth
Elevation
Range (km)
Doppler Factor

Next 0 passes for location: London (51.5072 / 0.1276)

Sorry there are no passes over London.